Simultaneous Nadir Overpasses (SNOs) Predictions

Prediction of SNOs between GOES-16 and AQUA Satellite Orbit:

Table of predicted SNOs for the next 14.0 days since TLE Epoch: 6/8/2024
Index Date Time (GOES-16) GOES-16 Lat,Lon AQUA Lat,Lon Distance(km) Time Diff (sec)
1 06/08/2024 18:58:28 -0.01, -75.20 0.53, -72.55 300.92 80
2 06/09/2024 07:21:16 0.02, -75.21 0.49, -77.43 252.43 80
3 06/11/2024 07:02:03 0.01, -75.22 -0.39, -73.38 209.24 80
4 06/11/2024 19:24:59 -0.02, -75.22 -0.69, -78.28 348.30 80
5 06/13/2024 19:05:45 -0.02, -75.24 0.21, -74.23 115.10 80
6 06/14/2024 07:28:31 0.02, -75.25 0.82, -79.10 437.40 80
7 06/16/2024 07:09:15 0.02, -75.28 -0.03, -75.04 27.30 80
8 06/18/2024 06:52:39 0.01, -75.31 -0.90, -70.98 492.72 80
9 06/18/2024 19:15:34 -0.01, -75.32 -0.13, -75.89 64.02 80
10 06/20/2024 18:56:16 -0.00, -75.36 0.76, -71.82 402.04 80
11 06/21/2024 07:19:02 0.00, -75.37 0.29, -76.68 149.95 80
